When you browse on this site, cookies collect data to enhance your experience and personalize the content and advertising you see.
Visit our Privacy Policy to learn more. By continuing to use the site, you agree to this use of cookies and data.
  • In Spain
  • List of Countries
  • For 7 days
  • Water Temperature
  • Weather Map
  • Weather Widgets
  • user-avatar
    Login

    Hourly Weather l'Hospitalet de Llobregat

    Today, 23 February, Sunday

    Time Temperature Precipitation Wind Pressure Humidity
    00:00 +13°C° 0 mm 1 mps 767 mmHg 75%
    01:00 +13°C° 0 mm 1 mps 767 mmHg 74%
    02:00 +13°C° 0 mm 1 mps 766 mmHg 72%
    03:00 +13°C° 0 mm 2 mps 766 mmHg 70%
    04:00 +12°C° 0 mm 2 mps 766 mmHg 68%
    05:00 +12°C° 0 mm 2 mps 766 mmHg 66%
    06:00 +12°C° 0 mm 2 mps 766 mmHg 65%
    07:00 +13°C° 0 mm 2 mps 766 mmHg 59%
    08:00 +14°C° 0 mm 3 mps 766 mmHg 54%
    09:00 +16°C° 0 mm 3 mps 766 mmHg 49%
    10:00 +17°C° 0 mm 3 mps 766 mmHg 45%
    11:00 +19°C° 0 mm 3 mps 766 mmHg 40%
    12:00 +21°C° 0 mm 4 mps 766 mmHg 35%
    13:00 +21°C° 0 mm 4 mps 765 mmHg 35%
    14:00 +22°C° 0 mm 4 mps 764 mmHg 35%
    15:00 +22°C° 0 mm 5 mps 764 mmHg 35%
    16:00 +21°C° 0 mm 5 mps 764 mmHg 40%
    17:00 +19°C° 0 mm 4 mps 764 mmHg 45%
    18:00 +18°C° 0 mm 4 mps 764 mmHg 50%
    19:00 +17°C° 0 mm 4 mps 764 mmHg 52%
    20:00 +17°C° 0 mm 3 mps 764 mmHg 54%
    21:00 +16°C° 0 mm 3 mps 764 mmHg 57%
    22:00 +16°C° 0 mm 3 mps 764 mmHg 57%
    23:00 +14°C° 0 mm 3 mps 764 mmHg 58%

    Tomorrow, 24 February, Monday

    Time Temperature Precipitation Wind Pressure Humidity
    00:00 +15°C° 0 mm 2 mps 764 mmHg 59%
    01:00 +14°C° 0 mm 2 mps 764 mmHg 60%
    02:00 +14°C° 0 mm 2 mps 763 mmHg 60%
    03:00 +14°C° 0 mm 2 mps 763 mmHg 61%
    04:00 +14°C° 0 mm 2 mps 762 mmHg 60%
    05:00 +14°C° 0 mm 2 mps 762 mmHg 60%
    06:00 +13°C° 0 mm 2 mps 762 mmHg 60%
    07:00 +14°C° 0 mm 2 mps 762 mmHg 56%
    08:00 +16°C° 0 mm 2 mps 762 mmHg 52%
    09:00 +17°C° 0 mm 2 mps 762 mmHg 48%
    10:00 +18°C° 0 mm 3 mps 761 mmHg 44%
    11:00 +20°C° 0 mm 3 mps 761 mmHg 39%
    12:00 +21°C° 0 mm 4 mps 760 mmHg 35%
    13:00 +22°C° 0 mm 4 mps 759 mmHg 35%
    14:00 +22°C° 0 mm 4 mps 759 mmHg 34%
    15:00 +22°C° 0 mm 5 mps 758 mmHg 34%
    16:00 +21°C° 0 mm 4 mps 758 mmHg 38%
    17:00 +19°C° 0 mm 4 mps 758 mmHg 43%
    18:00 +18°C° 0 mm 4 mps 758 mmHg 47%
    19:00 +17°C° 0 mm 4 mps 758 mmHg 49%
    20:00 +17°C° 0 mm 3 mps 757 mmHg 51%
    21:00 +16°C° 0 mm 3 mps 757 mmHg 52%
    22:00 +16°C° 0 mm 3 mps 757 mmHg 53%
    23:00 +15°C° 0 mm 2 mps 757 mmHg 53%

    Day after tomorrow, 25 February, Tuesday

    Time Temperature Precipitation Wind Pressure Humidity
    00:00 +15°C° 0 mm 2 mps 757 mmHg 54%
    01:00 +15°C° 0 mm 2 mps 756 mmHg 55%
    02:00 +14°C° 0 mm 2 mps 756 mmHg 56%
    03:00 +14°C° 0 mm 1 mps 755 mmHg 57%
    04:00 +14°C° 0 mm 1 mps 755 mmHg 57%
    05:00 +13°C° 0 mm 1 mps 755 mmHg 57%
    06:00 +13°C° 0 mm 1 mps 755 mmHg 58%
    07:00 +14°C° 0 mm 1 mps 755 mmHg 55%
    08:00 +15°C° 0 mm 1 mps 755 mmHg 53%
    09:00 +16°C° 0 mm 1 mps 755 mmHg 50%
    10:00 +18°C° 0 mm 1 mps 755 mmHg 46%
    11:00 +18°C° 0 mm 2 mps 755 mmHg 41%
    12:00 +19°C° 0 mm 2 mps 754 mmHg 37%
    13:00 +19°C° 0 mm 2 mps 754 mmHg 37%
    14:00 +19°C° 0 mm 3 mps 753 mmHg 37%
    15:00 +19°C° 0 mm 3 mps 753 mmHg 37%
    16:00 +18°C° 0 mm 3 mps 753 mmHg 46%
    17:00 +15°C° 0 mm 4 mps 753 mmHg 56%
    18:00 +14°C° 0 mm 4 mps 753 mmHg 66%
    19:00 +13°C° 0 mm 4 mps 753 mmHg 68%
    20:00 +13°C° 0 mm 4 mps 754 mmHg 70%
    21:00 +12°C° 0 mm 3 mps 754 mmHg 72%
    22:00 +12°C° 0 mm 3 mps 754 mmHg 72%
    23:00 +13°C° 0 mm 2 mps 754 mmHg 72%

    26 February, Wednesday

    Time Temperature Precipitation Wind Pressure Humidity
    00:00 +13°C° 0 mm 1 mps 753 mmHg 72%
    01:00 +12°C° 0 mm 2 mps 753 mmHg 72%
    02:00 +11°C° 0 mm 3 mps 753 mmHg 72%
    03:00 +11°C° 0 mm 4 mps 753 mmHg 72%
    04:00 +11°C° 0 mm 4 mps 752 mmHg 68%
    05:00 +10°C° 0 mm 5 mps 752 mmHg 65%
    06:00 +9°C° 0 mm 5 mps 752 mmHg 62%
    07:00 +10°C° 0 mm 6 mps 752 mmHg 59%
    08:00 +11°C° 0 mm 6 mps 753 mmHg 55%
    09:00 +11°C° 0 mm 6 mps 753 mmHg 52%
    10:00 +14°C° 0 mm 6 mps 753 mmHg 45%
    11:00 +15°C° 0 mm 5 mps 753 mmHg 38%
    12:00 +17°C° 0 mm 5 mps 753 mmHg 31%
    13:00 +17°C° 0 mm 6 mps 753 mmHg 32%
    14:00 +16°C° 0 mm 6 mps 753 mmHg 33%
    15:00 +16°C° 0 mm 7 mps 753 mmHg 34%
    16:00 +15°C° 0 mm 7 mps 754 mmHg 40%
    17:00 +13°C° 0 mm 6 mps 754 mmHg 46%
    18:00 +11°C° 0 mm 6 mps 755 mmHg 51%
    19:00 +11°C° 0 mm 6 mps 756 mmHg 53%
    20:00 +10°C° 0 mm 5 mps 757 mmHg 55%
    21:00 +10°C° 0 mm 5 mps 757 mmHg 56%
    22:00 +10°C° 0 mm 4 mps 758 mmHg 60%
    23:00 +10°C° 0 mm 4 mps 758 mmHg 63%

    27 February, Thursday

    Time Temperature Precipitation Wind Pressure Humidity
    00:00 +10°C° 0 mm 4 mps 758 mmHg 66%
    01:00 +10°C° 0 mm 4 mps 759 mmHg 66%
    02:00 +10°C° 0 mm 3 mps 759 mmHg 67%
    03:00 +10°C° 0 mm 3 mps 759 mmHg 68%
    04:00 +10°C° 0.1 mm 3 mps 759 mmHg 68%
    05:00 +9°C° 0.1 mm 3 mps 759 mmHg 68%
    06:00 +9°C° 0.1 mm 3 mps 759 mmHg 69%
    07:00 +10°C° 0.1 mm 3 mps 760 mmHg 68%
    08:00 +10°C° 0.1 mm 3 mps 760 mmHg 66%
    09:00 +10°C° 0.1 mm 3 mps 760 mmHg 65%
    10:00 +11°C° 0 mm 3 mps 760 mmHg 64%
    11:00 +11°C° 0 mm 3 mps 760 mmHg 63%
    12:00 +12°C° 0 mm 3 mps 759 mmHg 61%
    13:00 +12°C° 0 mm 3 mps 759 mmHg 60%
    14:00 +13°C° 0 mm 2 mps 759 mmHg 58%
    15:00 +14°C° 0 mm 2 mps 758 mmHg 56%
    16:00 +13°C° 0 mm 2 mps 759 mmHg 58%
    17:00 +13°C° 0 mm 2 mps 759 mmHg 60%
    18:00 +12°C° 0 mm 2 mps 759 mmHg 62%
    19:00 +12°C° 0 mm 2 mps 759 mmHg 65%
    20:00 +11°C° 0 mm 3 mps 759 mmHg 69%
    21:00 +11°C° 0 mm 3 mps 759 mmHg 72%
    22:00 +11°C° 0 mm 3 mps 759 mmHg 72%
    23:00 +11°C° 0 mm 3 mps 759 mmHg 73%

    28 February, Friday

    Time Temperature Precipitation Wind Pressure Humidity
    00:00 +10°C° 0 mm 3 mps 759 mmHg 73%
    01:00 +10°C° 0 mm 3 mps 758 mmHg 73%
    02:00 +10°C° 0 mm 3 mps 758 mmHg 73%
    03:00 +10°C° 0 mm 3 mps 757 mmHg 72%
    04:00 +9°C° 0 mm 3 mps 757 mmHg 72%
    05:00 +9°C° 0 mm 3 mps 757 mmHg 72%
    06:00 +9°C° 0 mm 3 mps 756 mmHg 72%
    07:00 +10°C° 0 mm 3 mps 756 mmHg 71%
    08:00 +11°C° 0 mm 3 mps 756 mmHg 71%
    09:00 +12°C° 0 mm 3 mps 756 mmHg 71%
    10:00 +13°C° 0 mm 4 mps 755 mmHg 70%
    11:00 +14°C° 0 mm 5 mps 755 mmHg 69%
    12:00 +15°C° 0 mm 5 mps 754 mmHg 68%
    13:00 +15°C° 0 mm 6 mps 753 mmHg 66%
    14:00 +16°C° 0 mm 6 mps 753 mmHg 64%
    15:00 +16°C° 0 mm 6 mps 752 mmHg 62%
    16:00 +15°C° 0 mm 6 mps 752 mmHg 67%
    17:00 +14°C° 0 mm 5 mps 751 mmHg 73%
    18:00 +13°C° 0 mm 5 mps 751 mmHg 78%
    19:00 +13°C° 0 mm 4 mps 751 mmHg 80%
    20:00 +12°C° 0 mm 4 mps 751 mmHg 82%
    21:00 +12°C° 0 mm 3 mps 751 mmHg 85%
    22:00 +12°C° 0 mm 3 mps 750 mmHg 86%
    23:00 +11°C° 0 mm 3 mps 750 mmHg 87%
    Show more